TimeAKDT,TemperatureF,Dew PointF,Humidity,Sea Level PressureIn,VisibilityMPH,Wind Direction,Wind SpeedMPH,Gust SpeedMPH,PrecipitationIn,Events,Conditions,WindDirDegrees,DateUTC
12:16 AM,26.6,23.0,86,30.01,10.0,North,3.5,-,N/A,,Overcast,350,2013-03-16 08:16:00
12:36 AM,26.6,23.0,86,30.02,10.0,NNW,5.8,-,N/A,,Overcast,330,2013-03-16 08:36:00
12:56 AM,26.6,21.2,80,30.03,10.0,NNW,5.8,-,N/A,,Overcast,340,2013-03-16 08:56:00
1:16 AM,26.6,23.0,86,30.03,10.0,Calm,Calm,-,N/A,,Overcast,0,2013-03-16 09:16:00
1:36 AM,28.4,23.0,80,30.03,10.0,Calm,Calm,-,N/A,,Overcast,0,2013-03-16 09:36:00
1:56 AM,28.4,23.0,80,30.03,10.0,West,3.5,-,N/A,,Overcast,280,2013-03-16 09:56:00
2:16 AM,28.4,23.0,80,30.03,10.0,North,3.5,-,N/A,,Overcast,10,2013-03-16 10:16:00
2:36 AM,28.4,24.8,86,30.02,10.0,NE,3.5,-,N/A,,Overcast,40,2013-03-16 10:36:00
2:56 AM,28.4,23.0,80,30.03,10.0,WSW,3.5,-,N/A,,Overcast,240,2013-03-16 10:56:00
3:16 AM,28.4,23.0,80,30.02,10.0,NNW,4.6,-,N/A,,Overcast,340,2013-03-16 11:16:00
3:36 AM,28.4,23.0,80,30.01,10.0,NW,5.8,-,N/A,,Overcast,310,2013-03-16 11:36:00
3:56 AM,28.4,23.0,80,30.01,10.0,NW,4.6,-,N/A,,Overcast,320,2013-03-16 11:56:00
4:16 AM,28.4,23.0,80,30.01,10.0,NNW,5.8,-,N/A,,Overcast,340,2013-03-16 12:16:00
4:36 AM,28.4,23.0,80,30.01,10.0,North,5.8,-,N/A,,Overcast,350,2013-03-16 12:36:00
4:56 AM,28.4,23.0,80,30.00,10.0,North,6.9,-,N/A,,Overcast,350,2013-03-16 12:56:00
5:16 AM,28.4,21.2,74,30.00,10.0,NNW,5.8,-,N/A,,Overcast,340,2013-03-16 13:16:00
5:36 AM,28.4,21.2,74,30.00,10.0,South,3.5,-,N/A,,Overcast,180,2013-03-16 13:36:00
5:56 AM,28.4,21.2,74,30.00,10.0,NW,6.9,-,N/A,,Overcast,320,2013-03-16 13:56:00
6:16 AM,28.4,21.2,74,30.00,10.0,Calm,Calm,-,N/A,,Overcast,0,2013-03-16 14:16:00
6:36 AM,28.4,21.2,74,30.00,10.0,SW,3.5,-,N/A,,Overcast,230,2013-03-16 14:36:00
6:56 AM,26.6,21.2,80,30.00,10.0,SSE,3.5,-,N/A,,Mostly Cloudy,160,2013-03-16 14:56:00
7:16 AM,26.6,21.2,80,30.00,10.0,SSE,3.5,-,N/A,,Mostly Cloudy,150,2013-03-16 15:16:00
7:36 AM,26.6,21.2,80,30.00,10.0,Calm,Calm,-,N/A,,Mostly Cloudy,0,2013-03-16 15:36:00
7:56 AM,26.6,21.2,80,30.00,10.0,Calm,Calm,-,N/A,,Mostly Cloudy,0,2013-03-16 15:56:00
8:16 AM,26.6,21.2,80,30.00,10.0,Calm,Calm,-,N/A,,Mostly Cloudy,0,2013-03-16 16:16:00
8:36 AM,28.4,21.2,74,30.00,10.0,NNW,5.8,-,N/A,,Mostly Cloudy,340,2013-03-16 16:36:00
8:56 AM,28.4,21.2,74,30.00,10.0,North,3.5,-,N/A,,Mostly Cloudy,350,2013-03-16 16:56:00
9:16 AM,28.4,23.0,80,30.00,10.0,Calm,Calm,-,N/A,,Mostly Cloudy,0,2013-03-16 17:16:00
9:36 AM,28.4,23.0,80,30.00,10.0,North,5.8,-,0.01,,Mostly Cloudy,350,2013-03-16 17:36:00
9:56 AM,28.4,23.0,80,30.00,10.0,North,4.6,-,0.01,,Mostly Cloudy,360,2013-03-16 17:56:00
10:16 AM,28.4,21.2,74,29.99,10.0,Calm,Calm,-,N/A,,Mostly Cloudy,0,2013-03-16 18:16:00
10:36 AM,28.4,21.2,74,30.00,10.0,North,3.5,-,0.01,,Mostly Cloudy,350,2013-03-16 18:36:00
10:56 AM,28.4,23.0,80,30.00,10.0,Calm,Calm,-,0.02,,Mostly Cloudy,0,2013-03-16 18:56:00
11:16 AM,28.4,23.0,80,30.00,10.0,NNW,4.6,-,0.01,,Mostly Cloudy,340,2013-03-16 19:16:00
11:36 AM,28.4,21.2,74,30.00,10.0,NNW,5.8,-,0.01,,Mostly Cloudy,330,2013-03-16 19:36:00
11:56 AM,28.4,21.2,74,30.00,10.0,NW,3.5,-,0.02,,Overcast,310,2013-03-16 19:56:00
12:16 PM,28.4,21.2,74,30.00,10.0,NW,3.5,-,N/A,,Overcast,320,2013-03-16 20:16:00
12:36 PM,28.4,21.2,74,30.00,10.0,WNW,3.5,-,0.01,,Overcast,290,2013-03-16 20:36:00
12:56 PM,28.4,21.2,74,29.99,10.0,NW,5.8,-,0.01,,Overcast,320,2013-03-16 20:56:00
1:16 PM,30.2,21.2,69,29.99,10.0,WNW,4.6,-,N/A,,Overcast,290,2013-03-16 21:16:00
1:36 PM,30.2,21.2,69,29.99,10.0,West,4.6,-,0.01,,Overcast,280,2013-03-16 21:36:00
1:56 PM,30.2,23.0,75,29.99,10.0,West,3.5,-,0.01,,Overcast,270,2013-03-16 21:56:00
2:16 PM,30.2,21.2,69,29.99,10.0,SW,3.5,-,0.01,,Overcast,220,2013-03-16 22:16:00
2:36 PM,30.2,24.8,80,29.99,10.0,WNW,6.9,-,0.01,,Overcast,300,2013-03-16 22:36:00
2:56 PM,30.2,24.8,80,29.98,10.0,NW,4.6,-,0.01,,Overcast,320,2013-03-16 22:56:00
3:16 PM,30.2,24.8,80,29.98,10.0,NNW,3.5,-,N/A,,Overcast,330,2013-03-16 23:16:00
3:36 PM,30.2,24.8,80,29.98,10.0,NW,5.8,-,N/A,,Overcast,320,2013-03-16 23:36:00
3:56 PM,32.0,24.8,75,29.98,10.0,NW,3.5,-,N/A,,Overcast,310,2013-03-16 23:56:00
4:16 PM,32.0,24.8,75,29.98,10.0,WNW,3.5,-,N/A,,Overcast,300,2013-03-17 00:16:00
4:36 PM,32.0,24.8,75,29.97,10.0,NW,4.6,-,N/A,,Overcast,320,2013-03-17 00:36:00
4:56 PM,32.0,24.8,75,29.97,10.0,NW,6.9,-,N/A,,Overcast,310,2013-03-17 00:56:00
5:16 PM,32.0,24.8,75,29.96,10.0,WNW,6.9,-,N/A,,Overcast,300,2013-03-17 01:16:00
5:36 PM,30.2,24.8,80,29.96,10.0,NW,6.9,-,N/A,,Overcast,310,2013-03-17 01:36:00
5:56 PM,30.2,24.8,80,29.96,10.0,WNW,8.1,-,N/A,,Mostly Cloudy,300,2013-03-17 01:56:00
6:16 PM,30.2,24.8,80,29.96,10.0,WNW,6.9,-,N/A,,Mostly Cloudy,300,2013-03-17 02:16:00
6:36 PM,30.2,24.8,80,29.96,10.0,NW,5.8,-,N/A,,Mostly Cloudy,320,2013-03-17 02:36:00
6:56 PM,30.2,24.8,80,29.96,10.0,NW,6.9,-,N/A,,Mostly Cloudy,310,2013-03-17 02:56:00
7:16 PM,30.2,23.0,75,29.96,10.0,NW,6.9,-,N/A,,Mostly Cloudy,320,2013-03-17 03:16:00
7:36 PM,30.2,23.0,75,29.97,10.0,WNW,6.9,-,N/A,,Mostly Cloudy,300,2013-03-17 03:36:00
7:56 PM,30.2,23.0,75,29.97,10.0,NW,8.1,-,N/A,,Scattered Clouds,310,2013-03-17 03:56:00
8:16 PM,30.2,21.2,69,29.97,10.0,NW,8.1,-,N/A,,Scattered Clouds,310,2013-03-17 04:16:00
8:36 PM,28.4,19.4,69,29.97,10.0,West,9.2,-,N/A,,Scattered Clouds,260,2013-03-17 04:36:00
8:56 PM,30.2,21.2,69,29.97,10.0,NW,10.4,-,N/A,,Scattered Clouds,320,2013-03-17 04:56:00
9:16 PM,30.2,21.2,69,29.98,10.0,NW,8.1,-,N/A,,Scattered Clouds,320,2013-03-17 05:16:00
9:36 PM,28.4,21.2,74,29.98,10.0,NNW,9.2,-,N/A,,Scattered Clouds,330,2013-03-17 05:36:00
9:56 PM,28.4,21.2,74,29.98,10.0,NW,11.5,-,N/A,,Overcast,320,2013-03-17 05:56:00
10:16 PM,28.4,21.2,74,29.99,10.0,NW,9.2,-,N/A,,Overcast,320,2013-03-17 06:16:00
10:36 PM,28.4,21.2,74,29.99,10.0,NW,6.9,-,N/A,,Overcast,310,2013-03-17 06:36:00
10:56 PM,28.4,19.4,69,29.99,10.0,West,8.1,-,N/A,,Overcast,280,2013-03-17 06:56:00
11:16 PM,28.4,19.4,69,29.99,10.0,WNW,9.2,-,N/A,,Scattered Clouds,300,2013-03-17 07:16:00
11:36 PM,28.4,21.2,74,30.00,10.0,NW,9.2,-,N/A,,Mostly Cloudy,320,2013-03-17 07:36:00
11:56 PM,28.4,19.4,69,30.00,10.0,NW,9.2,-,N/A,,Overcast,320,2013-03-17 07:56:00